TIME,DELAY(SENSOR),PRES,OXYGEN,RAWTEMP,T(OPTODE),TCPHASE,FLUOR,BETA(BETA700),BETA(BETA412),BETA(BETA440),CDOM,C(CSC),ED(ED412.40),ED(ED444.00),ED(ED489.70),ED(ED554.30),LU(LU411.80),LU(LU443.40),LU(LU489.60),LU(LU554.10),COMP,TILTX,TILTY,CHECK
1338435342,5807,897.3599853515625000,43.3282699584960940,662.5717163085938000,4.5432739257812500,54.5331001281738300,52,102,87,79,82,15339,2147758281,2147422857,2148007158,2147879204,2147641627,2147059136,2148262125,2147202550,2132,4,14,12304
1338438938,5808,965.0399780273438000,46.7843208312988300,669.9227294921875000,4.3007512092590330,54.1172409057617200,53,102,86,79,83,15341,2147757056,2147421586,2148007104,2147877650,2147641517,2147061321,2148260827,2147199506,407,4,13,34703
1338442538,5808,980.2299804687500000,47.5537300109863300,670.8518066406250000,4.2700557708740230,54.0188407897949200,52,99,92,79,83,15336,2147756562,2147422070,2148007186,2147876260,2147643501,2147053997,2148261238,2147201737,264,4,13,56844
1338446138,5807,992.4400024414062000,46.6830406188964840,669.5308227539062000,4.3136940002441410,54.1318092346191400,52,99,88,79,83,15340,2147759826,2147420553,2148005403,2147874651,2147643145,2147062948,2148261065,2147201782,567,4,14,64884
1338449738,5811,984.3499755859375000,46.8032302856445300,671.0938720703125000,4.2620539665222170,54.1340599060058600,53,100,94,78,83,15338,2147761115,2147420754,2148011200,2147877851,2147644224,2147057106,2148263808,2147195968,705,4,13,57683
1338453338,5808,987.5000000000000000,47.1613998413085940,672.4177856445312000,4.2182960510253910,54.1003112792968750,53,98,91,79,83,15337,2147757796,2147423204,2148008118,2147877001,2147644681,2147057398,2148260763,2147199131,149,4,13,48510
1338456938,5810,1004.3200073242188000,46.6887893676757800,671.3206176757812000,4.2545638084411620,54.1507110595703100,52,102,87,78,83,15338,2147759972,2147422592,2148004964,2147874322,2147641755,2147061257,2148263286,2147200694,58,5,13,6308
1338460538,5807,992.5599975585938000,46.8266296386718750,672.1442260742188000,4.2273387908935550,54.1445503234863300,52,100,89,79,83,15336,2147760009,2147420818,2148008932,2147875876,2147643456,2147059556,2148258596,2147203501,613,4,13,16761
1338464138,5808,995.7800292968750000,47.3885192871093750,673.2852783203125000,4.1896100044250490,54.0764808654785160,53,100,91,80,84,15335,2147758482,2147422125,2148008073,2147875474,2147644114,2147061604,2148264676,2147201115,3541,4,14,21231
1338467738,5809,1000.8900146484375000,47.3775215148925800,673.0463256835938000,4.1975150108337400,54.0724601745605500,53,99,89,80,83,15332,2147757677,2147422400,2148007094,2147873481,2147646080,2147059565,2148267465,2147200722,3001,4,14,19643
1338471338,5809,1000.2100219726562000,47.2112007141113300,672.5144042968750000,4.2151007652282715,54.0945701599121100,53,103,89,80,85,15332,2147757869,2147421632,2148006491,2147876132,2147645814,2147065554,2148260498,2147199936,248,4,13,24483
1338474938,5809,991.5200195312500000,46.9080886840820300,673.1583251953125000,4.1938109397888180,54.1407890319824200,53,100,88,80,84,15335,2147757814,2147420736,2148006985,2147875172,2147645942,2147057536,2148266313,2147201773,3312,4,13,59936
1338478538,5806,998.2299804687500000,47.2389907836914060,673.3784790039062000,4.1865291595458980,54.0947799682617200,52,101,90,81,82,15315,2147758354,2147420928,2148009014,2147872694,2147646345,2147060077,2148263844,2147200429,3486,4,13,55882
1338482138,5809,998.5599975585938000,47.0979881286621100,673.2960815429688000,4.1892509460449220,54.1145782470703100,52,100,88,81,83,15335,2147758994,2147421165,2148006957,2147874057,2147645001,2147061156,2148267510,2147203657,3440,4,13,56015
1338485738,5809,1001.4699707031250000,47.2671813964843750,673.1926269531250000,4.1926770210266110,54.0931587219238300,53,98,88,81,84,15334,2147758253,2147423058,2148007341,2147874907,2147640905,2147056448,2148264512,2147200274,200,4,13,28711
1338489338,5811,1010.0599975585938000,46.5056991577148440,672.1475830078125000,4.2272257804870605,54.1854209899902340,53,100,89,79,84,15335,2147755254,2147421686,2148007012,2147871616,2147643401,2147059346,2148266432,2147201307,413,4,13,32209
1338492938,5806,999.8499755859375000,46.4970588684082000,672.4799194335938000,4.2162442207336430,54.1949195861816400,52,100,86,80,83,15336,2147759222,2147419730,2148009206,2147874194,2147649316,2147060416,2148261174,2147198710,485,4,13,48634
1338496538,5810,997.9799804687500000,46.7990608215332000,673.1779785156250000,4.1931571960449220,54.1557998657226560,53,100,86,79,83,15326,2147760246,2147419136,2148008786,2147875894,2147647789,2147054610,2148258596,2147197330,16,4,13,44261
1338500138,5808,998.0100097656250000,46.9006004333496100,673.1372070312500000,4.1945080757141110,54.1439018249511700,52,100,86,78,84,15327,2147760009,2147421696,2148008493,2147873938,2147645970,2147063753,2148256118,2147201700,372,4,13,50773
1338503738,5811,1000.5900268554688000,47.0497283935546900,673.2180175781250000,4.1918368339538570,54.1230697631835940,52,100,91,80,82,15323,2147759771,2147424192,2148009024,2147873956,2147644589,2147059154,2148259712,2147194477,3485,4,14,43878
1338507338,5805,1000.0700073242188000,47.1270484924316400,673.1403198242188000,4.1944069862365720,54.1115913391113300,53,101,91,79,83,15323,2147755620,2147420297,2148008118,2147878692,2147644169,2147060617,2148260717,2147196973,658,4,13,48092
1338510938,5810,1001.7600097656250000,46.8157081604003900,673.9030761718750000,4.1691761016845700,54.1630210876464840,52,101,88,79,83,15326,2147756790,2147419044,2148005522,2147874569,2147644534,2147058038,2148256585,2147196169,566,4,13,47299
1338514538,5811,1008.0399780273438000,46.5062599182128900,673.5266723632812000,4.1816267967224120,54.2002410888671900,53,101,89,79,82,15317,2147757805,2147420352,2148002660,2147873920,2147645805,2147060736,2148260160,2147198601,888,4,14,21546
1338518138,5808,1002.9000244140625000,46.7824401855468750,673.7736816406250000,4.1734561920166020,54.1668090820312500,53,100,88,79,83,15324,2147756608,2147420562,2148007195,2147873453,2147643273,2147057289,2148258934,2147198500,672,4,13,51643
1338521738,5808,1000.4699707031250000,46.7359390258789060,673.4511718750000000,4.1841239929199220,54.1668701171875000,53,98,87,79,84,15326,2147758555,2147422308,2148008338,2147874578,2147643657,2147059017,2148267556,2147197083,623,4,13,33381
1338525338,5809,1010.0300292968750000,46.8468894958496100,672.4177246093750000,4.2182979583740230,54.1386909484863300,52,99,87,80,84,15328,2147758902,2147419693,2148006208,2147874633,2147645741,2147057389,2148262976,2147199341,2830,4,13,44644
1338528938,5807,1008.4299926757812000,46.3750495910644500,672.2211914062500000,4.2247958183288570,54.2063789367675800,52,99,88,79,83,15326,2147758994,2147421001,2148007606,2147876525,2147648109,2147058075,2148263616,2147200091,150,4,13,42599
1338532538,5809,1006.3499755859375000,46.0975112915039060,672.4982910156250000,4.2156329154968260,54.2507514953613300,53,102,89,81,84,15323,2147758500,2147421814,2148006418,2147874925,2147646811,2147061001,2148258441,2147202733,3161,4,13,1293
1338536138,5804,1004.0100097656250000,46.4340515136718750,673.0886230468750000,4.1961150169372560,54.2076683044433600,52,103,90,81,83,15315,2147758134,2147421622,2148006098,2147873252,2147645193,2147062107,2148258916,2147196544,79,4,13,46044
1338539738,5811,1009.2600097656250000,47.3588485717773440,673.6544189453125000,4.1774020195007320,54.0822792053222660,52,98,88,80,84,15303,2147759232,2147420553,2148003456,2147875620,2147643584,2147055954,2148266514,2147196315,464,4,13,11829
1338543338,5810,1008.8099975585938000,47.1107482910156250,673.2642211914062000,4.1903080940246580,54.1120185852050800,52,99,88,79,84,15320,2147760512,2147420114,2148007780,2147875017,2147646217,2147061046,2148263680,2147197494,60,4,13,4981
1338546938,5808,1004.6099853515625000,46.6618804931640600,673.5410766601562000,4.1811499595642090,54.1807518005371100,54,98,88,79,83,15308,2147756379,2147422454,2148007689,2147872429,2147645814,2147062601,2148263177,2147197961,99,4,13,8430
1338550538,5809,1011.2500000000000000,46.6080017089843750,672.9849853515625000,4.1995410919189450,54.1840705871582000,52,97,91,79,84,15318,2147755538,2147422418,2148006729,2147874377,2147645083,2147060251,2148253147,2147200018,50,4,13,59280
1338554138,5804,1012.2299804687500000,46.4369392395019500,673.0540771484375000,4.1972541809082030,54.2087898254394500,52,99,88,80,83,15322,2147757961,2147421577,2148008237,2147874834,2147645906,2147061010,2148260562,2147198729,160,4,13,19045
1338557738,5808,1010.3400268554688000,46.4103393554687500,672.1173706054688000,4.2282261848449710,54.2019500732421900,53,107,86,81,83,15317,2147762944,2147421019,2148005458,2147873024,2147645787,2147063305,2148261540,2147200228,898,4,13,12318
1338561338,5811,1011.1099853515625000,46.0381584167480500,672.4780883789062000,4.2163028717041020,54.2578887939453100,53,99,90,80,84,15315,2147758884,2147423222,2148007798,2147873499,2147645019,2147058889,2148264539,2147199661,3546,4,13,56535
1338564938,5809,1003.1300048828125000,46.5717697143554700,674.0745849609375000,4.1635041236877440,54.2035408020019500,53,99,90,80,82,15315,2147758308,2147425572,2148007204,2147875355,2147642834,2147058166,2148254921,2147200493,520,4,13,54959
1338568538,5810,1005.7000122070312000,47.3706283569335940,674.1286010742188000,4.1617159843444820,54.0865898132324200,52,100,90,81,84,15320,2147757202,2147421046,2148007030,2147876233,2147642806,2147057453,2148262235,2147197165,314,4,13,59537
1338572138,5808,1007.8300170898438000,47.2716712951660160,673.7946166992188000,4.1727681159973145,54.1026611328125000,53,99,90,85,84,15320,2147757229,2147423561,2148006235,2147875254,2147641673,2147055734,2148257234,2147201206,682,4,14,23267
1338575738,5809,1009.3800048828125000,47.2655296325683600,673.7788696289062000,4.1732859611511230,54.0987892150878900,52,99,86,81,83,15317,2147756608,2147424027,2148006610,2147875693,2147645558,2147065097,2148260553,2147201280,965,4,14,64981
1338579338,5811,1005.3200073242188000,46.8405494689941400,673.6318969726562000,4.1781458854675290,54.1572799682617200,53,100,91,79,83,15316,2147758299,2147422189,2148006729,2147874130,2147644315,2147062774,2148262326,2147200146,57,4,13,47866
1338580256,5809,1010.5000000000000000,46.6853103637695300,674.2360229492188000,4.1581649780273440,54.1861915588378900,53,97,91,80,83,15333,2147759140,2147420269,2148007844,2147877778,2147640548,2147061001,2148260681,2147196461,3568,4,14,47124
